| time (UTC) | temp F | wind direction | speed knots | gust knots | rain 1hr in | rain 24hr in | rain mn in | humidity % | barometer mb |
| 20260504204505 | 61 | 302 | 4.3 | 14.8 | 0.00 | 0.00 | 0.00 | 21 | 1004.9 |
| 20260504203006 | 61 | 268 | 7.8 | 13.0 | 0.00 | 0.00 | 0.00 | 24 | 1004.8 |
| 20260504201502 | 62 | 291 | 7.8 | 13.0 | 0.00 | 0.00 | 0.00 | 22 | 1004.9 |
| 20260504200100 | 61 | 297 | 11.3 | 13.9 | 0.00 | 0.00 | 0.00 | 22 | 1004.8 |
| 20260504194559 | 60 | 259 | 7.8 | 12.2 | 0.00 | 0.00 | 0.00 | 23 | 1004.9 |
| 20260504193058 | 60 | 315 | 9.6 | 13.0 | 0.00 | 0.00 | 0.00 | 27 | 1005.0 |
| 20260504191606 | 60 | 252 | 7.8 | 11.3 | 0.00 | 0.00 | 0.00 | 23 | 1005.3 |
| 20260504190112 | 59 | 324 | 6.1 | 13.0 | 0.00 | 0.00 | 0.00 | 31 | 1005.4 |
| 20260504184552 | 59 | 276 | 3.5 | 9.6 | 0.00 | 0.00 | 0.00 | 27 | 1005.6 |
| 20260504183050 | 58 | 280 | 4.3 | 7.8 | 0.00 | 0.00 | 0.00 | 28 | 1005.7 |
| 20260504181554 | 58 | 226 | 3.5 | 9.6 | 0.00 | 0.00 | 0.00 | 28 | 1005.9 |
| 20260504180046 | 57 | 291 | 3.5 | 6.1 | 0.00 | 0.00 | 0.00 | 29 | 1006.0 |
| 20260504174545 | 57 | 258 | 4.3 | 6.1 | 0.00 | 0.00 | 0.00 | 33 | 1006.1 |
| 20260504173040 | 56 | 94 | 0.9 | 4.3 | 0.00 | 0.00 | 0.00 | 33 | 1006.4 |
| 20260504171537 | 54 | 282 | 1.7 | 5.2 | 0.00 | 0.00 | 0.00 | 37 | 1006.5 |
| 20260504140107 | 34 | 328 | 0.9 | 2.6 | 0.00 | 0.00 | 0.00 | 63 | 1008.3 |
| 20260504081529 | 30 | 49 | 0.0 | 1.7 | 0.00 | 0.00 | 0.00 | 63 | 1008.2 |
| 20260504050010 | 36 | 45 | 0.0 | 0.9 | 0.00 | 0.00 | 0.00 | 52 | 1007.7 |
| 20260504044507 | 39 | 46 | 0.0 | 0.9 | 0.00 | 0.00 | 0.00 | 48 | 1007.5 |
| 20260504043007 | 39 | 41 | 0.0 | 3.5 | 0.00 | 0.00 | 0.00 | 48 | 1007.5 |
| 20260504041509 | 39 | 91 | 0.0 | 2.6 | 0.00 | 0.00 | 0.00 | 47 | 1007.3 |
| 20260504040006 | 40 | 112 | 0.0 | 0.9 | 0.00 | 0.00 | 0.00 | 46 | 1007.1 |
| 20260504034505 | 41 | 243 | 0.0 | 1.7 | 0.00 | 0.00 | 0.00 | 44 | 1007.0 |
| 20260504033008 | 44 | 102 | 0.0 | 1.7 | 0.00 | 0.00 | 0.00 | 42 | 1006.8 |
| 20260504031506 | 46 | 105 | 0.0 | 2.6 | 0.00 | 0.00 | 0.00 | 41 | 1006.6 |
| 20260504030004 | 49 | 31 | 0.9 | 2.6 | 0.00 | 0.00 | 0.00 | 35 | 1006.6 |
| 20260504024503 | 51 | 347 | 0.9 | 1.7 | 0.00 | 0.00 | 0.00 | 31 | 1006.4 |
| 20260504023003 | 54 | 341 | 0.9 | 2.6 | 0.00 | 0.00 | 0.00 | 29 | 1006.3 |
| 20260504021501 | 58 | 284 | 1.7 | 4.3 | 0.00 | 0.00 | 0.00 | 23 | 1006.2 |
| 20260504020001 | 61 | 234 | 2.6 | 4.3 | 0.00 | 0.00 | 0.00 | 20 | 1006.0 |
| 20260504014606 | 62 | 256 | 2.6 | 6.1 | 0.00 | 0.00 | 0.00 | 19 | 1006.0 |
| 20260504013100 | 63 | 290 | 1.7 | 5.2 | 0.00 | 0.00 | 0.00 | 17 | 1006.1 |
| 20260504011558 | 63 | 287 | 3.5 | 7.8 | 0.00 | 0.00 | 0.00 | 16 | 1006.3 |
| 20260504010105 | 63 | 297 | 4.3 | 7.8 | 0.00 | 0.00 | 0.00 | 16 | 1006.5 |
| 20260504004556 | 62 | 314 | 2.6 | 6.1 | 0.00 | 0.00 | 0.00 | 17 | 1006.5 |
| 20260504003057 | 63 | 264 | 1.7 | 3.5 | 0.00 | 0.00 | 0.00 | 15 | 1006.7 |
| 20260504001553 | 64 | 287 | 5.2 | 9.6 | 0.00 | 0.00 | 0.00 | 15 | 1006.8 |
| 20260504000125 | 65 | 236 | 6.1 | 9.6 | 0.00 | 0.00 | 0.00 | 12 | 1006.9 |
| 20260503234556 | 65 | 264 | 3.5 | 9.6 | 0.00 | 0.00 | 0.00 | 15 | 1007.2 |
| 20260503233044 | 65 | 303 | 7.8 | 12.2 | 0.00 | 0.00 | 0.00 | 14 | 1007.3 |
| 20260503231541 | 64 | 290 | 7.8 | 13.0 | 0.00 | 0.00 | 0.00 | 14 | 1007.4 |
| 20260503230038 | 63 | 276 | 7.8 | 12.2 | 0.00 | 0.00 | 0.00 | 18 | 1007.6 |
| 20260503224538 | 64 | 283 | 7.0 | 12.2 | 0.00 | 0.00 | 0.00 | 14 | 1007.7 |
| 20260503223039 | 65 | 291 | 5.2 | 13.9 | 0.00 | 0.00 | 0.00 | 17 | 1007.9 |
| 20260503221546 | 63 | 295 | 7.0 | 11.3 | 0.00 | 0.00 | 0.00 | 19 | 1008.2 |
| 20260503220034 | 64 | 252 | 4.3 | 7.8 | 0.00 | 0.00 | 0.00 | 16 | 1008.3 |
| 20260503214531 | 64 | 276 | 5.2 | 10.4 | 0.00 | 0.00 | 0.00 | 15 | 1008.5 |
| 20260503213029 | 66 | 257 | 6.1 | 10.4 | 0.00 | 0.00 | 0.00 | 14 | 1008.7 |
| 20260503211527 | 64 | 262 | 4.3 | 9.6 | 0.00 | 0.00 | 0.00 | 15 | 1009.1 |
| 20260503210024 | 61 | 167 | 1.7 | 5.2 | 0.00 | 0.00 | 0.00 | 17 | 1009.3 |